Location: Marsån
(66.4167°N, 22.2833°E)
Time: 10:16:44
(UTC+00:00)

Cosmos 1825 Rocket - Pass Details

Date: 24 February 2024
Orbit: 600 x 628 km, 82.5° (Epoch: 15 April)

Event Time Altitude Azimuth Distance (km) Brightness Sun altitude
Rises 17:42:44 0° 188° (S) 2,915 7.0 -14.5°
Reaches altitude 10° 17:44:58 10° 186° (S) 2,010 6.1 -14.7°
Maximum altitude 17:49:24 71° 103° (ESE) 671 3.5 -15.2°
Drops below altitude 10° 17:53:50 10° 20° (NNE) 2,011 6.1 -15.6°
Sets 17:56:05 0° 19° (NNE) 2,917 7.0 -15.8°
